EHI
5 7 9 14 27 41 45 44 40 35 29 23 19 12 5 1 0 0 0 0 0 0 0 0 0 0 0 0 0 0 0 0 0 0 0 0 0 0 0 0 0 0 0
15 12 14 21 32 44 46 42 38 34 28 22 17 10 4 0 0 0 0 0 0 0 0 0 0 0 0 0 0 0 0 0 0 0 0 0 0 0 0 0 0 0 0
28 22 22 30 38 45 47 42 37 34 26 19 13 8 3 1 0 0 0 0 0 0 0 0 0 0 0 0 0 0 0 0 0 0 0 0 0 0 0 0 0 0 0
36 29 28 35 41 45 48 43 36 30 21 13 9 6 3 1 0 0 0 0 0 0 0 0 0 0 0 0 0 0 0 0 0 0 0 0 0 0 0 0 0 0 0
38 32 34 41 44 45 46 40 31 22 11 6 5 4 2 1 0 0 0 0 0 0 0 0 0 0 0 0 0 0 0 0 0 0 0 0 0 0 0 0 0 0 0
40 36 40 48 49 45 43 36 25 14 5 2 2 1 1 0 0 0 0 0 0 0 0 0 0 0 0 0 0 0 0 0 0 0 0 0 0 0 0 0 0 0 0
47 42 44 52 52 47 42 33 22 11 4 1 0 0 0 0 0 0 0 0 0 0 0 0 0 0 0 0 0 0 0 0 0 0 0 0 0 0 0 0 0 0 0
55 50 48 51 51 47 41 31 19 11 4 1 0 0 0 0 0 0 0 0 0 0 0 0 0 0 0 0 0 0 0 0 0 0 0 0 0 0 0 0 0 0 0
59 56 51 48 46 42 35 26 17 10 4 1 0 0 0 0 0 0 0 0 0 0 0 0 0 0 0 0 0 0 0 0 0 0 0 0 0 0 0 0 0 0 0
60 57 51 47 43 36 29 22 15 8 2 0 0 0 0 0 0 0 0 0 0 0 0 0 0 0 0 0 0 1 0 0 0 0 0 0 0 0 0 0 0 0 0
58 55 49 46 41 35 29 22 13 5 1 0 0 0 0 0 0 0 0 0 0 0 0 0 0 0 0 0 0 0 0 0 0 0 0 0 0 0 0 0 0 0 0
55 52 47 42 38 34 31 23 12 4 1 0 0 0 0 0 0 0 0 0 0 0 0 0 0 0 0 0 0 0 0 0 0 0 0 0 0 0 0 0 0 0 0
53 50 44 38 34 32 30 24 14 5 1 0 0 0 0 0 0 0 0 0 0 0 0 0 0 0 0 0 0 0 0 0 0 0 0 0 0 0 0 0 0 0 0
48 45 39 34 31 30 28 23 15 5 1 0 0 0 1 0 0 0 0 0 0 0 0 0 0 0 0 0 0 0 0 0 0 0 0 0 0 0 0 0 0 0 0
39 35 33 31 27 26 24 20 12 4 1 0 0 0 0 0 0 0 0 0 0 0 0 0 0 0 0 0 0 0 0 0 0 0 0 0 0 0 0 0 0 0 0
33 30 29 27 23 21 18 13 7 3 0 0 0 0 0 0 0 0 0 0 0 0 0 0 0 0 0 0 0 0 0 0 0 0 0 0 0 0 0 0 0 0 0
31 29 27 25 20 16 11 7 5 2 0 0 0 0 0 0 0 0 0 0 0 0 0 0 0 0 0 0 0 0 0 0 0 0 0 0 0 0 0 0 0 0 0
29 27 26 25 20 13 8 6 5 3 1 0 0 0 0 0 0 0 0 0 0 0 0 0 0 0 0 0 0 0 0 0 0 0 0 0 0 0 0 0 1 1 0
25 26 25 23 17 12 9 8 6 3 1 0 0 0 0 0 0 0 0 0 0 0 0 0 0 0 0 0 0 0 0 0 0 0 0 0 0 0 0 0 1 1 1
22 22 20 17 14 12 12 10 6 2 0 0 0 0 0 0 0 0 0 0 0 0 0 0 0 0 0 0 0 0 0 0 0 0 0 0 0 0 0 0 1 1 0
19 16 12 10 10 11 12 9 4 0 0 0 0 0 0 0 0 0 0 0 0 0 0 0 0 0 0 0 0 0 0 0 0 0 0 0 0 0 0 0 0 0 0
16 13 8 5 6 8 8 5 2 0 0 0 0 0 0 0 0 0 0 0 0 0 0 0 0 0 0 0 0 0 0 0 0 0 0 0 0 0 0 0 0 0 0
13 11 8 5 4 5 4 2 0 0 0 0 0 0 0 0 0 0 0 0 0 0 0 0 0 0 0 0 0 0 0 0 0 0 0 0 0 0 0 0 0 0 0
10 9 7 4 3 3 3 2 0 0 0 1 0 0 0 0 0 0 0 0 0 0 0 0 0 0 0 0 0 0 0 0 0 0 0 0 0 0 0 0 0 0 0
7 7 5 4 3 3 3 1 0 0 0 1 0 0 1 1 0 0 0 0 0 0 0 0 0 0 0 0 0 0 0 0 0 0 0 0 0 0 0 0 0 0 0
6 6 4 3 3 3 2 1 0 0 1 1 1 1 2 2 1 0 0 0 0 0 0 0 0 0 0 0 0 0 0 0 0 0 0 0 0 0 0 0 0 0 0
Wind_Speed
8 10 18 18 18 18 18 18 18 18 18 18 17 17 16 15 15 14 13 12 12 12 11 12 12 12 12 12 12 13 13 13 13 14 14 15 15 15 15 15 14 12 16
13 13 20 19 18 18 18 18 18 18 18 17 17 16 16 15 14 14 13 12 12 12 12 12 12 12 12 12 12 12 12 12 13 14 14 14 14 14 14 15 14 10 15
16 13 17 19 19 18 18 18 18 18 17 16 16 15 15 14 14 13 13 12 12 12 12 12 12 12 12 12 12 12 12 12 13 13 13 8 10 13 13 14 14 14 14
16 12 14 20 19 19 18 18 17 17 17 16 15 15 14 13 13 13 12 12 12 12 12 12 12 12 12 12 11 11 12 12 13 13 7 7 8 12 13 13 14 14 13
13 11 15 21 20 19 18 17 17 16 16 15 15 14 14 13 13 12 12 12 12 12 12 12 12 12 11 11 10 10 11 11 12 10 6 6 6 11 13 13 13 13 13
12 11 15 21 20 19 18 17 16 16 15 15 14 14 13 13 12 12 12 12 12 12 12 12 12 11 10 9 9 9 10 11 10 7 6 6 6 11 12 12 12 12 12
13 10 13 21 20 19 18 17 16 15 15 14 14 13 13 12 12 12 12 12 11 11 11 11 10 10 9 8 8 8 9 11 8 7 6 5 6 10 12 12 12 12 12
13 10 12 20 20 19 18 17 16 15 15 14 13 13 12 12 12 11 11 11 11 10 10 10 9 9 8 7 7 8 10 10 8 7 6 5 7 10 11 11 11 11 11
11 10 9 11 14 18 18 17 16 15 15 14 13 12 12 11 11 11 10 10 10 9 9 8 8 8 7 7 6 7 9 10 7 5 6 4 8 10 11 11 11 10 10
9 9 8 8 8 9 11 16 16 15 15 14 13 12 11 11 11 10 9 9 9 8 8 7 7 7 7 6 6 7 8 9 6 5 4 5 9 10 10 10 10 10 10
10 8 8 8 8 7 7 12 13 14 14 13 11 12 9 4 4 5 7 8 8 7 7 6 6 6 6 6 6 7 7 4 5 4 3 6 9 9 10 9 9 9 9
13 10 8 9 8 8 8 6 5 5 6 5 4 5 4 4 3 4 5 7 7 6 6 5 5 5 5 3 4 5 2 4 4 3 3 7 8 9 9 9 9 8 8
13 12 9 8 8 7 5 5 3 3 3 4 5 5 4 3 3 2 1 2 2 4 3 4 4 3 3 2 2 2 2 2 2 2 3 7 8 8 9 9 8 8 8
13 13 11 9 8 7 5 5 4 4 3 3 4 5 4 3 3 2 2 2 2 2 2 3 2 3 3 3 3 2 2 2 2 1 2 6 7 8 8 8 8 8 8
13 13 13 11 9 7 5 5 5 4 4 4 4 4 5 3 3 3 2 2 2 2 2 2 2 3 3 3 2 2 2 2 2 2 1 5 6 7 7 7 8 8 8
13 13 12 12 9 7 6 5 4 4 4 4 4 5 5 4 4 3 3 2 2 1 2 2 3 2 2 1 2 2 1 1 1 1 1 1 4 5 6 6 7 7 8
12 11 11 11 10 8 7 6 5 4 5 4 4 5 5 5 5 4 3 2 2 2 2 2 3 2 2 2 2 2 1 1 0 1 1 0 1 3 5 5 5 6 7
10 11 11 11 11 9 7 6 4 4 5 4 4 4 5 5 5 4 3 2 2 2 2 2 2 2 2 2 1 2 1 1 1 0 0 0 0 1 2 3 4 5 6
10 11 11 10 11 10 7 5 5 4 4 4 4 4 5 5 6 4 3 3 3 3 2 2 2 2 1 1 1 2 2 1 1 1 0 0 1 1 1 1 3 4 5
8 9 10 10 10 9 6 4 4 4 3 3 4 4 6 5 6 5 3 4 4 3 2 2 2 2 2 1 2 3 2 2 2 1 1 0 0 1 1 1 1 1 2
9 10 10 10 10 9 6 6 5 5 4 3 3 5 6 6 6 5 4 4 4 3 3 3 2 3 2 1 2 2 3 3 3 2 2 1 1 1 1 1 0 0 0
10 11 11 10 10 9 7 5 4 4 3 3 3 4 5 6 6 6 5 4 4 3 3 3 3 2 2 2 2 2 2 3 3 3 2 2 2 1 1 1 1 1 0
12 13 12 11 10 9 8 5 5 4 3 2 3 3 4 5 6 5 6 5 4 4 4 3 3 4 2 1 1 3 3 2 1 2 3 3 2 1 1 1 1 1 0
11 11 11 10 10 9 9 9 10 7 5 4 4 3 3 4 5 6 6 6 5 4 4 3 3 3 3 2 1 2 1 3 3 1 2 2 2 2 2 1 1 1 0
8 9 10 10 9 9 9 10 9 6 4 4 4 5 4 3 4 5 6 5 5 4 4 3 3 3 2 3 3 2 2 2 2 2 1 2 2 2 2 2 1 1 0
8 8 9 9 8 9 9 9 9 9 8 8 6 6 4 3 3 4 6 5 5 4 4 4 3 4 3 3 2 2 3 2 2 2 2 1 1 2 2 2 1 1 1
Wind_Direction
158 159 154 148 141 134 129 125 123 122 122 122 122 123 124 124 123 122 120 118 115 113 110 107 105 105 105 106 106 107 108 109 109 110 109 108 107 107 107 105 103 104 106
150 156 154 150 144 137 132 129 127 126 125 125 125 125 125 125 124 123 122 120 118 115 111 109 108 108 108 108 108 109 110 112 112 111 110 110 109 108 109 108 107 109 109
146 153 153 151 146 140 136 133 131 129 128 128 128 127 127 126 125 123 121 121 119 116 113 112 111 109 108 108 110 111 112 113 110 108 105 102 108 110 111 112 111 109 109
146 149 151 152 148 143 140 136 134 133 132 131 130 130 129 128 127 125 124 122 118 116 114 113 112 110 109 109 111 112 112 112 111 107 99 103 110 114 113 113 112 111 111
145 147 156 153 151 147 143 140 138 137 136 135 134 133 132 131 129 128 126 121 118 118 117 115 112 111 110 111 113 116 117 117 114 104 97 95 104 118 117 116 114 113 113
145 149 159 155 153 150 146 144 142 140 139 139 138 137 135 134 132 129 127 124 121 119 117 114 112 110 110 111 113 120 124 119 110 106 103 106 113 123 122 119 118 118 117
148 152 160 157 155 153 150 148 146 145 144 143 142 141 138 137 133 131 131 127 124 121 118 114 111 110 108 109 112 119 124 124 116 116 114 116 124 127 125 122 121 120 119
150 151 157 159 157 156 155 152 151 150 149 148 147 146 143 140 137 135 134 130 126 123 119 116 112 108 103 102 108 117 126 125 126 127 124 128 134 132 131 128 126 124 123
147 149 154 158 159 160 158 156 155 155 153 152 152 150 148 144 141 140 138 133 130 126 122 118 111 103 96 93 102 120 132 131 126 132 138 137 142 139 137 134 134 132 130
147 151 151 149 151 155 159 161 160 159 158 157 157 155 153 148 146 144 140 140 136 132 126 119 111 100 90 88 97 113 127 125 129 133 134 150 151 148 144 142 141 139 137
158 155 153 151 150 150 156 166 162 163 164 162 161 160 151 128 127 137 145 147 142 137 129 118 108 95 84 77 93 108 112 122 133 132 142 160 160 158 153 151 149 146 145
167 164 158 155 154 153 163 156 150 153 155 147 138 136 117 113 128 136 155 151 147 138 125 113 97 85 76 65 82 98 105 131 135 141 162 169 169 166 162 160 157 155 153
168 168 164 162 158 157 151 145 139 130 131 131 131 124 119 112 115 110 104 123 112 109 80 77 69 64 71 74 77 94 116 124 140 155 175 181 177 173 170 170 168 167 165
171 171 167 166 162 158 150 148 143 139 139 139 138 136 131 127 121 116 104 97 86 78 86 74 72 67 66 66 77 94 110 119 142 150 186 188 184 182 179 179 178 179 179
176 175 172 168 166 159 150 154 154 150 148 145 142 146 145 145 143 133 120 110 105 96 97 93 84 74 59 45 55 83 108 116 141 145 178 198 191 191 190 189 190 192 191
181 178 172 170 166 160 159 157 155 153 147 146 154 157 155 153 149 141 134 129 121 113 103 101 97 89 73 54 50 58 80 95 127 150 162 215 207 200 200 200 202 203 201
178 175 171 170 163 162 163 164 157 155 153 159 162 161 160 157 152 144 141 145 141 121 109 92 83 77 77 61 46 41 55 37 92 163 168 195 238 226 213 210 217 220 217
169 171 175 176 166 166 168 163 153 157 161 163 159 159 164 160 153 145 144 150 142 124 115 107 90 81 64 59 45 27 30 15 4 287 166 174 190 241 233 233 234 234 235
179 173 172 171 169 171 165 155 152 155 162 160 156 160 165 162 155 148 151 151 145 129 120 125 89 98 91 73 69 53 33 27 5 2 112 207 197 212 230 269 266 257 251
175 172 171 170 169 162 152 141 139 146 154 153 159 164 163 159 155 149 149 152 146 132 123 110 102 79 81 84 73 58 35 26 31 30 7 41 252 228 216 228 265 280 274
170 170 177 174 167 160 160 163 163 169 163 158 163 160 160 158 157 156 154 151 148 145 147 137 115 96 67 61 81 45 22 30 42 33 33 49 32 18 110 147 151 156 339
178 176 178 179 169 170 170 164 157 146 143 146 147 147 158 158 158 164 158 157 153 140 139 141 131 119 80 60 111 98 43 7 8 19 24 44 30 29 56 81 94 95 60
181 181 180 177 174 174 162 141 129 109 102 117 139 151 160 161 161 156 157 152 155 153 158 161 152 139 131 73 76 135 144 193 312 351 12 23 14 26 16 25 49 54 93
180 177 173 171 174 173 163 163 161 160 161 170 163 154 150 155 157 151 151 152 153 152 155 163 153 143 139 141 99 66 106 144 142 85 349 2 12 26 13 6 6 10 39
167 168 168 168 171 170 168 168 166 160 151 135 131 136 137 137 147 150 150 150 150 151 153 149 143 145 146 151 151 139 108 78 92 133 153 338 357 5 9 358 335 323 311
155 155 159 163 166 166 167 166 164 157 148 144 147 152 147 137 138 149 151 151 151 151 155 157 153 150 149 143 143 147 152 149 155 141 149 180 315 326 339 343 345 311 279